Visibility
14.9 13.8 13.5 15.0 14.9 15.0 1.9 3.9 1.1 5.1 7.7 15.0 15.0 15.0 15.0 15.0 15.0 15.0 15.0 15.0 15.0 15.0 15.0 15.0 15.0 0.6 15.0 15.0 15.0 15.0 15.0 15.0 15.0 15.0 15.0 15.0 15.0 15.0
4.0 14.0 15.0 15.0 7.7 15.0 4.8 2.9 4.6 15.0 15.0 15.0 15.0 15.0 15.0 15.0 15.0 15.0 15.0 15.0 15.0 15.0 15.0 15.0 12.1 0.1 9.6 0.1 0.4 15.0 15.0 15.0 1.6 3.4 15.0 15.0 15.0 15.0
4.8 14.8 12.0 15.0 15.0 15.0 9.4 7.4 15.0 15.0 15.0 15.0 15.0 15.0 15.0 15.0 15.0 15.0 15.0 15.0 15.0 15.0 15.0 15.0 15.0 10.2 15.0 0.2 0.0 0.1 0.1 1.5 5.7 0.6 0.7 1.7 7.6 13.8
9.2 15.0 15.0 15.0 15.0 15.0 15.0 15.0 15.0 15.0 15.0 15.0 15.0 15.0 15.0 15.0 15.0 15.0 15.0 15.0 15.0 15.0 15.0 15.0 15.0 15.0 15.0 13.5 0.2 0.1 0.1 0.2 0.1 0.2 0.1 0.2 0.1 0.4
15.0 15.0 15.0 15.0 15.0 15.0 15.0 15.0 15.0 15.0 15.0 15.0 15.0 15.0 15.0 15.0 15.0 15.0 15.0 15.0 15.0 15.0 15.0 15.0 15.0 15.0 15.0 15.0 15.0 15.0 15.0 0.5 6.4 0.1 0.1 0.0 0.0 0.0
15.0 15.0 15.0 15.0 15.0 15.0 15.0 15.0 15.0 15.0 15.0 15.0 15.0 15.0 15.0 15.0 15.0 15.0 15.0 15.0 15.0 15.0 15.0 15.0 15.0 15.0 15.0 15.0 15.0 15.0 15.0 8.8 15.0 7.2 0.3 0.1 0.0 0.0
5.5 4.9 15.0 15.0 15.0 15.0 15.0 15.0 15.0 15.0 15.0 15.0 15.0 15.0 15.0 15.0 15.0 15.0 15.0 15.0 15.0 15.0 15.0 15.0 15.0 15.0 15.0 15.0 15.0 15.0 15.0 15.0 15.0 15.0 15.0 11.4 0.1 0.1
4.8 5.8 10.1 13.8 2.9 4.1 2.6 15.0 15.0 15.0 15.0 15.0 15.0 15.0 15.0 15.0 15.0 15.0 15.0 15.0 15.0 15.0 15.0 15.0 15.0 15.0 15.0 15.0 14.9 15.0 15.0 15.0 15.0 15.0 15.0 15.0 15.0 0.1
15.0 15.0 15.0 15.0 15.0 15.0 7.9 15.0 15.0 15.0 15.0 15.0 15.0 15.0 15.0 15.0 15.0 15.0 15.0 15.0 15.0 15.0 15.0 15.0 15.0 15.0 15.0 15.0 15.0 15.0 15.0 15.0 15.0 15.0 15.0 15.0 15.0 15.0
15.0 15.0 15.0 15.0 15.0 15.0 15.0 15.0 15.0 15.0 15.0 15.0 15.0 15.0 15.0 15.0 15.0 15.0 15.0 15.0 15.0 15.0 15.0 15.0 15.0 15.0 15.0 15.0 15.0 15.0 15.0 15.0 15.0 15.0 15.0 15.0 15.0 15.0
15.0 15.0 15.0 15.0 15.0 15.0 15.0 15.0 15.0 15.0 15.0 15.0 15.0 15.0 15.0 15.0 15.0 15.0 15.0 4.1 5.5 15.0 15.0 15.0 15.0 15.0 15.0 15.0 15.0 15.0 15.0 15.0 15.0 15.0 15.0 15.0 15.0 15.0
15.0 15.0 15.0 15.0 15.0 15.0 15.0 15.0 15.0 15.0 15.0 15.0 15.0 15.0 15.0 15.0 15.0 15.0 15.0 0.3 0.1 0.6 14.8 14.9 15.0 15.0 4.4 0.1 15.0 15.0 15.0 14.9 15.0 15.0 15.0 15.0 15.0 15.0
15.0 15.0 15.0 15.0 15.0 15.0 15.0 15.0 15.0 15.0 15.0 15.0 15.0 15.0 15.0 15.0 15.0 15.0 15.0 15.0 14.6 15.0 15.0 5.8 0.0 1.2 15.0 15.0 15.0 15.0 15.0 15.0 15.0 15.0 15.0 15.0 15.0 15.0
15.0 15.0 8.8 15.0 15.0 15.0 15.0 15.0 15.0 15.0 15.0 15.0 15.0 15.0 15.0 15.0 15.0 15.0 15.0 15.0 15.0 14.3 14.4 15.0 11.8 0.0 2.1 5.0 11.9 14.0 15.0 15.0 15.0 14.3 15.0 15.0 15.0 15.0
15.0 14.9 14.6 15.0 15.0 15.0 15.0 15.0 15.0 15.0 15.0 15.0 14.4 15.0 15.0 15.0 15.0 15.0 15.0 15.0 15.0 15.0 15.0 15.0 15.0 15.0 2.1 0.2 14.2 15.0 6.6 15.0 15.0 15.0 14.5 13.8 15.0 15.0
15.0 15.0 15.0 15.0 15.0 15.0 15.0 15.0 15.0 15.0 15.0 1.0 8.2 15.0 14.8 15.0 15.0 15.0 11.0 15.0 14.9 15.0 15.0 15.0 15.0 15.0 11.9 13.1 8.4 0.0 0.1 0.0 1.3 15.0 14.9 15.0 10.7 15.0
15.0 15.0 15.0 15.0 14.6 15.0 13.5 15.0 15.0 15.0 8.4 12.7 2.6 1.3 15.0 13.3 12.5 15.0 15.0 14.5 4.5 12.2 15.0 15.0 15.0 13.0 15.0 14.2 0.0 0.0 0.0 0.0 0.0 0.0 9.5 13.0 15.0 15.0
15.0 14.2 5.3 4.0 2.4 11.6 12.8 7.2 11.3 9.5 6.6 3.1 2.1 4.6 1.4 3.9 13.2 14.4 15.0 9.5 2.4 14.3 15.0 15.0 15.0 15.0 0.0 0.1 0.1 0.0 0.0 0.0 0.0 0.0 0.2 0.1 9.4 15.0
15.0 12.5 1.9 1.5 1.3 1.6 2.9 3.1 1.9 6.4 12.7 7.4 9.7 7.7 13.0 5.8 12.0 11.4 11.5 9.4 6.4 15.0 15.0 15.0 15.0 4.5 0.0 0.0 9.3 0.1 0.0 0.0 0.0 0.0 0.1 0.1 0.1 15.0
13.4 5.9 2.4 3.1 4.2 5.5 13.4 11.2 12.6 13.0 13.5 14.4 2.2 1.3 0.6 0.5 0.4 1.1 2.9 0.6 0.9 10.5 13.6 15.0 15.0 5.2 0.0 0.0 0.0 0.1 0.1 0.0 0.0 0.0 0.0 0.0 0.1 14.7
13.2 10.7 10.3 8.3 3.0 4.2 1.7 1.1 1.3 1.4 2.1 0.6 0.6 0.3 0.4 0.2 0.7 3.6 0.9 4.3 0.3 0.4 0.3 9.5 15.0 13.1 0.1 0.0 0.0 0.0 0.1 0.0 0.0 0.1 0.2 0.1 0.4 0.3
0.9 0.5 1.1 0.8 0.8 0.6 0.7 0.9 1.2 1.8 1.3 0.8 0.9 0.6 0.3 0.2 0.1 0.3 1.1 0.2 1.1 0.3 0.2 4.5 15.0 0.1 0.0 0.0 0.0 0.0 0.1 0.1 0.1 0.1 2.4 9.7 0.4 0.4
0.5 0.7 0.6 1.0 1.0 1.4 1.6 1.5 2.3 3.1 0.7 0.3 0.3 0.4 0.3 0.2 0.5 0.3 0.1 0.2 0.1 0.2 0.3 0.3 0.0 0.0 0.0 0.0 0.0 0.0 0.1 0.1 0.1 0.1 0.4 7.0 15.0 15.0